[[{"header":{"parameterUnit":"m.s-1","parameterCategory":1,"la1":30.2991,"la2":30.254,"lo1":-89.0895,"lo2":-89.0444,"dy":0.0017,"dx":0.0017,"nx":28,"ny":28,"refTime":"2024-08-14T21:00:00:Z","depth":0,"parameterNumber":2,"parameterNumberName":"U-component_of_WINDS"},"data":[0,0,0,0,0,0,0,0,0,0,0,0,0,0,0,0,0,0,0,0,0,0,0,0,0,0,0,0,0,0,0,0,0,0,0,0,0,0,0,0,0,0,0,0,0,0,0,0,0,0,0,0,0,0,0,0,0,0,3.0125,3.0126,0,3.02,3.0201,3.0202,3.0091,3.0088,3.0084,3.008,3.0161,3.0167,3.0173,0,0,0,0,0,0,0,0,0,0,0,0,0,2.9888,2.9893,3.0125,3.0126,3.0127,3.02,3.0201,3.0202,3.0092,3.0087,3.0083,3.0078,3.0159,3.0166,3.0173,0,0,0,0,0,0,0,0,0,0,0,0,0,2.998,2.9895,3.0125,3.008,3.0077,3.02,3.0201,3.0203,3.0093,3.0087,3.0081,3.0076,3.0157,3.0165,3.0174,3.0345,0,0,3.0201,3.0204,0,0,0,0,0,0,0,0,2.9975,2.9989,3.0086,3.0084,3.008,3.013,3.0147,3.025,3.0095,3.0087,3.008,3.0073,3.0156,3.0164,3.0191,3.0349,3.0352,3.0201,3.0207,3.021,3.0213,0,0,0,0,0,0,0,2.9969,2.9985,3.0155,3.0088,3.0084,3.0058,3.0065,3.0166,3.0154,3.0087,3.008,3.009,3.0153,3.0183,3.0193,3.0353,3.0201,3.0209,3.0214,3.0218,3.0653,3.066,0,0,0,0,0,0,2.9967,2.9981,3.0152,3.0157,3.0012,3.0067,3.0074,3.012,3.0152,3.0151,3.0095,3.0084,3.0171,3.0183,3.0195,3.0396,3.021,3.0218,3.0223,3.0647,3.0655,3.0662,0,0,0,0,0,0,2.9963,2.9984,3.0149,3.0067,3.0086,3.0077,3.013,3.0125,3.0155,3.0158,3.0155,3.0128,3.0167,3.0183,3.0308,3.0397,3.0222,3.023,3.064,3.065,3.0658,3.0801,0,0,0,0,0,0,2.9957,2.9983,3.0047,3.0069,3.0091,3.026,3.0135,3.0131,3.017,3.0157,3.0188,3.0187,3.0164,3.0296,3.0317,3.0406,3.0237,3.0632,3.0644,3.0655,3.0788,3.0814,3.0836,0,0,0,0,0,2.9948,3.0085,3.0051,3.0072,3.017,3.0266,3.0278,3.0247,3.0177,3.0242,3.0244,3.0186,3.0384,3.0309,3.0332,3.0426,3.0626,3.0641,3.0654,3.0777,3.0809,3.0835,0,0,0,0,0,0,3.0075,3.0087,3.0049,3.0197,3.0231,3.0247,3.0327,3.0282,3.0338,3.0323,3.0284,3.0292,3.0426,3.0438,3.0354,3.0592,3.0494,3.0513,3.0579,3.0609,3.0633,3.0627,3.0244,0,0,0,0,0,3.012,3.0195,3.0202,3.0332,3.0351,3.0337,3.0377,3.035,3.0384,3.0399,3.0409,3.0446,3.0516,3.0563,3.0628,3.0789,3.0794,3.0865,3.0889,3.0909,3.0926,3.1012,3.1043,3.0709,3.0709,3.0708,0,0,3.0214,3.023,3.028,3.0357,3.0381,3.046,3.0349,3.0439,3.0498,3.0412,3.053,3.054,3.0578,3.0722,3.0786,3.0737,3.102,3.0927,3.0943,3.0949,3.103,3.1061,3.1089,3.0719,3.0717,3.0715,0,0,3.0425,3.0445,3.0554,3.058,3.0616,3.0605,3.0632,3.0655,3.0658,3.0775,3.0713,3.0783,3.0905,3.0935,3.0966,3.1189,3.1138,3.1211,3.1337,3.1421,3.1447,3.147,3.1549,3.1578,3.1228,3.1229,3.1229,0,3.0537,3.0654,3.0617,3.071,3.0746,3.0671,3.0782,3.0809,3.0866,3.0893,3.0837,3.0988,3.1008,3.1157,3.1212,3.124,3.1269,3.1207,3.1446,3.1469,3.149,3.1565,3.1595,3.1237,3.1236,3.1235,3.1235,0,3.079,3.0872,3.0956,3.1011,3.1056,3.1159,3.1138,3.1189,3.1158,3.1154,3.1275,3.1297,3.1365,3.1398,3.137,3.1544,3.1512,3.1452,3.1352,3.1531,3.16,3.1629,3.125,3.1247,3.1244,3.1242,0,0,3.1083,3.1115,3.1147,3.117,3.1205,3.1268,3.1367,3.1432,3.1476,3.1518,3.16,3.1705,3.1649,3.1684,3.1658,3.1732,3.1907,3.1663,3.1663,3.1707,3.2099,3.2144,3.2177,3.1873,3.1879,3.1883,3.2096,0,3.1293,3.1462,3.1432,3.1597,3.1672,3.1602,3.1688,3.1719,3.1718,3.1783,3.1782,3.1856,3.1777,3.1798,3.1868,3.1871,3.1985,3.1855,3.195,3.1953,3.1941,3.2214,3.2261,3.2461,3.2123,3.2127,3.2131,0,3.1561,3.1611,3.1783,3.1804,3.1835,3.1913,3.1969,3.2032,3.2066,3.206,3.21,3.206,3.2159,3.2058,3.2194,3.2107,3.2144,3.2151,3.2158,3.2165,3.2052,3.2228,3.2524,3.2554,3.2173,3.217,3.2167,0,3.1757,3.1867,3.1984,3.2006,3.2035,3.2091,3.2106,3.2134,3.2175,3.2225,3.2251,3.2313,3.2347,3.2396,3.2375,3.2303,3.2516,3.2413,3.2514,3.2514,3.2561,3.2558,3.2867,3.2587,3.2586,3.2585,3.2585,0,3.1994,3.2102,3.2072,3.2144,3.2263,3.2227,3.2346,3.2353,3.2379,3.2451,3.2395,3.2465,3.2433,3.25,3.2485,3.26,3.2616,3.2614,3.2608,3.2619,3.2619,3.2642,3.2627,3.2593,3.2592,3.259,3.2589,0,3.2233,3.2217,3.2339,3.2356,3.2363,3.245,3.2464,3.2532,3.2527,3.2619,3.2639,3.2631,3.2708,3.2691,3.2776,3.2765,3.291,3.2887,3.2898,3.2892,3.2994,3.2984,3.3327,3.337,3.3063,3.3066,3.3069,0,3.2385,3.2466,3.2491,3.2535,3.2553,3.2625,3.2666,3.2635,3.268,3.2724,3.2787,3.2858,3.2914,3.304,3.3042,3.3107,3.3085,3.3201,3.3094,3.3102,3.3086,3.3081,3.3089,3.3222,3.3225,3.3228,3.323,0,3.2657,3.2645,3.2705,3.2763,3.2813,3.2858,3.2897,3.2937,3.2908,3.2962,3.3039,3.3082,3.3167,3.3239,3.3299,3.3315,3.3269,3.3264,3.329,3.3302,3.3304,3.3303,3.2955,3.3256,3.3254,3.3252,3.325,3.3249,3.2856,3.2925,3.2953,3.3022,3.3048,3.3086,3.315,3.3152,3.3215,3.3281,3.3259,3.3347,3.3379,3.3454,3.3477,3.3546,3.3503,3.3542,3.3551,3.3561,3.3573,3.3294,3.3557,3.3556,3.3555,3.3555,3.3554,0,3.3124,3.3139,3.3203,3.3259,3.3313,3.3263,3.3304,3.3354,3.3431,3.3464,3.3519,3.3608,3.3677,3.3685,3.375,3.3804,3.3785,3.3822,3.3818,3.3822,3.3609,3.3578,3.3837,3.3837,3.3837,3.3837,3.3837,3.3837,3.327,3.3383,3.3375,3.35,3.3514,3.3598,3.3626,3.3661,3.3687,3.3787,3.3844,3.3848,3.3871,3.3938,3.3999,3.4,3.4027,3.4073,3.4065,3.3865,3.3837,3.381,3.3782,3.4079,3.4079,3.4273,3.4274,3.4276]},{"header":{"parameterUnit":"m.s-1","parameterCategory":1,"la1":30.2991,"la2":30.254,"lo1":-89.0895,"lo2":-89.0444,"dy":0.0017,"dx":0.0017,"nx":28,"ny":28,"refTime":"2024-08-14T21:00:00:Z","depth":0,"parameterNumber":3,"parameterNumberName":"V-component_of_WINDS"},"data":[0,0,0,0,0,0,0,0,0,0,0,0,0,0,0,0,0,0,0,0,0,0,0,0,0,0,0,0,0,0,0,0,0,0,0,0,0,0,0,0,0,0,0,0,0,0,0,0,0,0,0,0,0,0,0,0,0,0,-0.3456,-0.3456,0,-0.3468,-0.3468,-0.3468,-0.3483,-0.3483,-0.3483,-0.3483,-0.3496,-0.3496,-0.3496,0,0,0,0,0,0,0,0,0,0,0,0,0,-0.3445,-0.3445,-0.3456,-0.3456,-0.3456,-0.3468,-0.3468,-0.3468,-0.3483,-0.3483,-0.3483,-0.3483,-0.3496,-0.3496,-0.3496,0,0,0,0,0,0,0,0,0,0,0,0,0,-0.3453,-0.3445,-0.3456,-0.3465,-0.3465,-0.3468,-0.3468,-0.3469,-0.3483,-0.3483,-0.3483,-0.3484,-0.3496,-0.3496,-0.3496,-0.3491,0,0,-0.3497,-0.3497,0,0,0,0,0,0,0,0,-0.3452,-0.3453,-0.3463,-0.3464,-0.3465,-0.3474,-0.3469,-0.3476,-0.3483,-0.3476,-0.3483,-0.3484,-0.3488,-0.3489,-0.3491,-0.3492,-0.3492,-0.3497,-0.3497,-0.3497,-0.3497,0,0,0,0,0,0,0,-0.3452,-0.3453,-0.3461,-0.3463,-0.3464,-0.3468,-0.347,-0.3471,-0.348,-0.3477,-0.3478,-0.3479,-0.3489,-0.3491,-0.3491,-0.3492,-0.3497,-0.3497,-0.3497,-0.3497,-0.3491,-0.3491,0,0,0,0,0,0,-0.345,-0.3452,-0.346,-0.3461,-0.3459,-0.3468,-0.347,-0.3471,-0.348,-0.3482,-0.3479,-0.348,-0.349,-0.3491,-0.3492,-0.3487,-0.3497,-0.3497,-0.3497,-0.3491,-0.3491,-0.3491,0,0,0,0,0,0,-0.345,-0.345,-0.346,-0.3457,-0.3458,-0.3468,-0.3469,-0.3471,-0.3473,-0.3482,-0.3484,-0.3479,-0.349,-0.3492,-0.3492,-0.3488,-0.3497,-0.3498,-0.3492,-0.3491,-0.3491,-0.3477,0,0,0,0,0,0,-0.3449,-0.345,-0.3448,-0.3457,-0.3458,-0.3459,-0.3469,-0.3471,-0.3473,-0.3474,-0.3482,-0.3484,-0.3491,-0.3491,-0.3492,-0.3488,-0.3498,-0.3492,-0.3492,-0.3491,-0.3478,-0.3476,-0.3475,0,0,0,0,0,-0.3449,-0.3443,-0.3448,-0.3449,-0.3456,-0.3458,-0.3459,-0.3468,-0.3473,-0.3471,-0.3477,-0.3484,-0.3488,-0.3491,-0.3492,-0.3488,-0.3492,-0.3492,-0.3491,-0.3479,-0.3477,-0.3475,0,0,0,0,0,0,-0.3433,-0.3444,-0.345,-0.3447,-0.3452,-0.3461,-0.3458,-0.3465,-0.3468,-0.3469,-0.348,-0.3481,-0.348,-0.3484,-0.3487,-0.3485,-0.3491,-0.3491,-0.3482,-0.348,-0.3478,-0.3477,-0.3498,0,0,0,0,0,-0.343,-0.3431,-0.3441,-0.3437,-0.3439,-0.3449,-0.345,-0.3456,-0.3461,-0.3463,-0.347,-0.3475,-0.3478,-0.3479,-0.3482,-0.3479,-0.3481,-0.3477,-0.3476,-0.3474,-0.3473,-0.3473,-0.3472,-0.3489,-0.3489,-0.3489,0,0,-0.3422,-0.3428,-0.3428,-0.3434,-0.3439,-0.344,-0.345,-0.3451,-0.3452,-0.3464,-0.3464,-0.3469,-0.3475,-0.3474,-0.3474,-0.3478,-0.347,-0.3473,-0.3472,-0.3472,-0.3473,-0.3471,-0.347,-0.3488,-0.3488,-0.3488,0,0,-0.3408,-0.3413,-0.3411,-0.3416,-0.3423,-0.3429,-0.3429,-0.3437,-0.3441,-0.3442,-0.3451,-0.3453,-0.3457,-0.3462,-0.3465,-0.3455,-0.3461,-0.3456,-0.3447,-0.3447,-0.3446,-0.3445,-0.3442,-0.344,-0.3455,-0.3455,-0.3455,0,-0.3398,-0.34,-0.3409,-0.341,-0.3412,-0.3424,-0.3422,-0.3426,-0.3434,-0.3436,-0.344,-0.3446,-0.3451,-0.3452,-0.345,-0.3452,-0.3452,-0.3454,-0.3445,-0.3444,-0.3443,-0.344,-0.3439,-0.3454,-0.3454,-0.3454,-0.3454,0,-0.3387,-0.3388,-0.3386,-0.3393,-0.3396,-0.3395,-0.3405,-0.3407,-0.3413,-0.3419,-0.3421,-0.3428,-0.3433,-0.3433,-0.3439,-0.3435,-0.3437,-0.3443,-0.345,-0.3441,-0.3438,-0.3437,-0.3453,-0.3453,-0.3454,-0.3454,0,0,-0.3362,-0.3376,-0.3375,-0.3379,-0.3388,-0.339,-0.3391,-0.3396,-0.3397,-0.3403,-0.3404,-0.3408,-0.3414,-0.3417,-0.3424,-0.3424,-0.3416,-0.343,-0.343,-0.3427,-0.3413,-0.3409,-0.3407,-0.3421,-0.3421,-0.3421,-0.3413,0,-0.335,-0.3352,-0.3361,-0.336,-0.3362,-0.3374,-0.3374,-0.338,-0.3387,-0.339,-0.3397,-0.34,-0.3407,-0.3409,-0.341,-0.3417,-0.3414,-0.3418,-0.3423,-0.3423,-0.342,-0.3406,-0.3401,-0.3393,-0.3412,-0.3412,-0.3412,0,-0.3336,-0.3341,-0.334,-0.3351,-0.3352,-0.3352,-0.3359,-0.3361,-0.3369,-0.3374,-0.3378,-0.3386,-0.3388,-0.3395,-0.3399,-0.3402,-0.3404,-0.3408,-0.3408,-0.3409,-0.3416,-0.3406,-0.339,-0.3389,-0.341,-0.341,-0.341,0,-0.3319,-0.3326,-0.3326,-0.3329,-0.3341,-0.3342,-0.3347,-0.3355,-0.3358,-0.3364,-0.3366,-0.3372,-0.3375,-0.338,-0.3389,-0.3394,-0.3392,-0.34,-0.3396,-0.3396,-0.3395,-0.3395,-0.3379,-0.3397,-0.3397,-0.3397,-0.3397,0,-0.3305,-0.3304,-0.3319,-0.3319,-0.3319,-0.333,-0.333,-0.3336,-0.3343,-0.3346,-0.3356,-0.3358,-0.3371,-0.3375,-0.3383,-0.3385,-0.3386,-0.339,-0.3392,-0.3389,-0.3389,-0.3391,-0.3392,-0.3397,-0.3397,-0.3397,-0.3397,0,-0.3285,-0.3295,-0.3296,-0.3308,-0.3311,-0.331,-0.3321,-0.3322,-0.333,-0.3333,-0.3334,-0.3346,-0.3351,-0.3362,-0.3369,-0.3375,-0.3375,-0.3379,-0.3372,-0.3374,-0.337,-0.337,-0.3355,-0.3354,-0.3372,-0.3372,-0.3372,0,-0.3275,-0.3274,-0.3286,-0.3289,-0.3294,-0.3297,-0.3301,-0.3312,-0.3316,-0.3325,-0.3326,-0.3332,-0.3337,-0.3345,-0.3355,-0.3361,-0.3365,-0.3359,-0.3366,-0.3363,-0.3365,-0.3365,-0.3365,-0.3358,-0.3357,-0.3357,-0.3357,0,-0.3256,-0.3261,-0.3266,-0.3272,-0.3276,-0.3282,-0.3288,-0.329,-0.3303,-0.3307,-0.3312,-0.3316,-0.3325,-0.3331,-0.3339,-0.3345,-0.3354,-0.3355,-0.3355,-0.3351,-0.3348,-0.335,-0.3368,-0.3355,-0.3355,-0.3355,-0.3355,-0.3356,-0.3241,-0.3241,-0.325,-0.3255,-0.3262,-0.3268,-0.327,-0.3278,-0.3283,-0.3291,-0.3298,-0.3303,-0.3312,-0.3324,-0.333,-0.3334,-0.3338,-0.3338,-0.3337,-0.3337,-0.3336,-0.3347,-0.3336,-0.3336,-0.3336,-0.3336,-0.3336,0,-0.3223,-0.3229,-0.3234,-0.3243,-0.3247,-0.3255,-0.3263,-0.3266,-0.327,-0.3278,-0.3284,-0.3291,-0.3297,-0.3308,-0.3316,-0.3318,-0.3322,-0.3319,-0.3319,-0.332,-0.3332,-0.3331,-0.3316,-0.3316,-0.3316,-0.3316,-0.3316,-0.3316,-0.3214,-0.3215,-0.3222,-0.3228,-0.3235,-0.324,-0.3244,-0.325,-0.3256,-0.3264,-0.3269,-0.3276,-0.3286,-0.3294,-0.3301,-0.3304,-0.3307,-0.3303,-0.3307,-0.3318,-0.3319,-0.3321,-0.3321,-0.3303,-0.3303,-0.3296,-0.3295,-0.3295]}]]